Temp
15 16 17 17 17 13 14 16 18 19 21 21 21 23 23 24 23 22 19 20 22 20 20 20 20 20 19 19 19 19 19 19 19 19 19 19 19 19 19 19 19 20 19 19 19 18 18 18 19
14 15 17 15 15 13 15 16 17 19 21 22 22 23 24 24 22 17 18 19 22 20 20 20 20 20 19 20 20 20 19 19 19 19 19 19 19 19 19 19 19 19 19 19 19 18 19 19 19
14 14 15 14 14 16 17 16 20 21 20 21 24 23 23 24 21 18 21 19 20 20 19 20 20 19 19 20 20 20 19 20 20 20 20 20 20 19 19 19 19 19 19 19 18 18 19 19 19
13 14 13 12 14 17 17 18 19 21 21 20 22 23 23 24 21 22 22 20 19 19 20 20 20 20 20 20 20 20 20 20 20 20 20 20 19 19 19 19 19 19 19 19 19 18 18 18 19
13 12 12 12 14 15 17 19 19 20 21 20 22 23 24 22 22 21 21 20 19 19 20 20 20 20 19 19 19 20 20 20 20 20 20 19 19 19 19 19 19 19 18 19 18 18 18 18 18
12 13 13 14 13 14 15 17 18 19 20 21 20 23 22 20 21 19 20 19 19 19 20 20 20 19 19 19 19 19 19 19 19 19 19 19 19 19 19 19 18 18 18 18 18 18 18 18 18
11 13 14 12 13 14 15 17 17 18 18 19 21 21 21 19 20 18 18 18 18 19 19 20 19 19 19 19 19 19 19 19 19 19 19 19 19 19 19 18 18 18 18 18 19 19 18 18 18
10 11 13 15 13 13 15 17 18 18 18 20 22 20 20 19 19 18 18 18 18 18 19 19 19 19 19 19 19 19 19 19 19 19 19 19 19 19 18 18 18 18 18 18 18 18 18 18 18
11 9 12 14 15 14 16 16 17 18 18 19 21 21 21 19 18 18 18 18 18 18 19 19 19 19 19 19 19 19 19 19 19 19 19 19 19 19 18 18 18 18 17 17 17 18 18 18 18
8 8 10 9 8 10 9 12 11 16 17 19 20 21 20 19 18 18 18 18 18 18 18 18 18 18 18 18 19 19 19 18 18 18 18 18 18 18 17 17 17 16 16 17 18 18 17 18 17
7 7 8 7 6 6 7 9 8 11 15 13 16 19 18 18 19 19 19 18 18 18 18 18 17 18 18 18 18 18 18 18 18 18 18 18 18 17 17 17 16 16 16 17 17 17 17 17 17
3 7 7 6 6 5 5 6 8 10 13 12 12 14 16 18 18 19 19 18 18 18 18 17 17 18 18 18 18 17 18 18 18 18 18 17 17 17 17 17 16 16 16 17 17 17 16 16 17
3 5 7 7 8 8 7 6 6 8 9 11 13 14 14 18 18 20 20 20 18 18 17 17 18 18 17 17 18 17 18 17 17 17 17 17 16 16 16 16 16 15 16 17 16 16 16 16 16
4 4 5 6 7 8 8 8 6 9 10 11 13 13 13 15 18 19 20 21 18 17 18 17 18 17 17 17 17 17 17 17 17 17 17 17 16 16 16 16 15 15 16 16 16 16 16 15 15
5 4 4 5 7 7 9 7 8 8 10 11 12 13 13 13 15 16 20 18 18 17 17 17 18 17 17 17 17 17 17 17 17 16 16 16 16 16 16 16 15 15 15 16 15 15 15 14 14
3 3 1 6 7 7 7 6 10 11 10 11 12 12 13 14 13 14 16 20 17 17 17 17 17 17 17 17 17 17 16 16 16 16 16 16 16 16 16 16 15 15 15 15 15 14 14 14 14
-1 -1 3 5 7 7 7 7 10 12 10 11 12 12 13 13 10 10 11 16 17 17 17 17 17 16 17 17 17 17 17 16 16 16 15 16 16 16 16 15 14 15 15 15 15 14 14 13 12
-0 -1 3 3 6 7 6 6 8 10 11 12 11 11 10 10 9 8 8 12 17 19 19 17 17 16 16 16 16 16 16 16 16 16 16 16 15 15 15 15 14 14 14 14 14 14 13 13 12
1 -1 2 3 6 5 6 6 8 9 6 6 7 7 7 7 7 7 7 7 13 17 21 21 17 16 17 16 16 16 16 16 15 16 16 16 15 15 15 15 14 14 14 14 14 13 13 11 12
1 -2 -0 4 6 4 5 6 6 5 4 4 4 4 5 5 6 6 6 5 6 9 14 20 17 17 16 16 16 16 16 16 15 15 15 16 15 15 15 15 14 14 13 13 13 13 10 10 12
-1 -2 3 4 5 5 5 6 5 5 3 4 2 3 3 4 4 5 5 4 4 5 8 12 19 18 16 17 16 16 15 15 15 15 15 15 15 15 15 15 14 14 14 13 13 13 12 10 11
-2 3 3 4 3 5 5 6 3 3 3 2 2 2 2 2 4 4 3 3 3 3 5 10 14 18 16 17 16 16 15 15 15 15 15 15 15 15 15 15 14 14 14 13 13 13 13 13 12
-0 2 2 3 3 5 5 1 1 2 2 1 1 1 1 1 3 3 2 2 2 3 3 6 11 16 16 15 16 15 15 15 15 14 15 15 14 15 14 14 14 14 14 14 13 12 13 13 13
0 -0 3 4 4 5 3 -1 -2 1 -0 0 0 0 1 1 2 2 2 1 1 2 3 5 8 12 15 15 15 16 15 15 15 14 14 14 14 14 14 13 14 13 13 14 13 13 13 13 13
-3 -3 -1 1 1 5 4 1 -2 -2 -2 -1 -1 -1 0 1 1 1 1 1 1 1 1 2 4 9 12 15 14 15 15 14 15 14 14 14 13 13 13 13 13 12 12 13 14 12 12 12 13
-3 -5 -3 1 1 2 1 -2 -1 -2 -2 -1 -1 -1 -1 -0 0 0 0 -0 -0 0 1 1 2 4 10 14 14 15 14 14 14 14 14 14 13 13 13 13 13 12 12 13 13 12 12 12 12
-1 -2 -3 -3 -2 0 -4 -3 -1 -1 -1 -2 -2 -1 -2 -2 -1 -1 -1 -1 -1 -1 -0 -0 1 2 4 8 13 14 14 14 14 14 14 14 13 13 13 13 13 12 12 13 13 12 11 11 12
-1 -3 -2 -4 -1 -1 -2 -4 -2 -3 -4 -4 -5 -5 -4 -3 -2 -2 -2 -2 -2 -1 -1 -1 0 1 2 4 7 11 12 14 14 14 14 13 13 13 13 12 12 12 12 12 12 11 11 11 11
-2 -3 -5 -5 -6 -4 -2 -1 -6 -5 -6 -6 -6 -6 -6 -5 -4 -3 -3 -2 -2 -2 -2 -2 -1 -0 2 2 3 6 10 11 13 13 13 13 13 13 13 13 12 12 12 11 11 10 10 10 10
-9 -7 -10 -4 -2 -7 -4 -1 -8 -6 -8 -7 -6 -6 -6 -6 -6 -5 -3 -3 -3 -3 -2 -2 -2 -1 -1 1 2 2 5 9 10 13 13 13 13 13 13 13 12 11 11 11 11 10 10 10 10
Height
789 786 784 785 801 807 804 790 772 772 769 758 756 761 765 759 769 787 751 755 757 764 773 778 783 787 790 792 795 798 801 804 806 808 810 812 814 816 818 821 823 824 825 827 829 830 831 832 833
786 785 785 790 800 807 790 779 774 764 756 751 754 755 759 762 753 755 756 755 758 763 772 778 782 787 790 793 796 799 802 804 807 810 812 814 815 817 820 823 825 826 828 830 832 832 833 835 836
787 786 788 794 791 774 773 769 761 757 755 757 753 750 752 752 749 752 748 752 757 764 772 777 782 787 790 793 797 799 802 805 808 811 813 816 818 820 822 825 827 829 831 832 834 836 837 838 840
786 786 789 793 772 762 763 761 757 757 755 757 753 758 747 741 743 745 747 752 758 763 770 777 782 787 791 794 797 800 803 806 809 812 814 817 820 822 823 826 828 832 833 834 837 839 840 842 843
786 786 789 781 766 765 761 757 757 756 755 755 753 756 749 741 741 746 744 751 755 764 769 777 782 787 791 795 798 802 804 807 810 813 816 819 821 824 825 827 830 833 835 837 840 842 844 845 846
786 779 778 762 767 767 763 757 756 754 753 752 756 752 750 743 742 744 746 750 757 761 768 776 783 787 792 795 799 803 805 808 811 813 817 820 822 825 828 830 833 836 838 840 842 844 846 847 848
790 777 759 766 766 767 763 757 756 757 755 755 748 755 749 745 745 749 750 749 757 763 769 774 782 787 792 796 799 803 806 809 812 815 818 820 824 826 829 832 834 838 840 842 844 846 848 850 851
791 784 765 755 766 768 757 754 752 753 753 748 743 754 754 742 745 751 754 757 759 763 770 774 781 787 791 797 800 804 807 810 813 816 819 821 824 828 830 834 836 839 842 844 846 848 849 852 854
791 790 769 763 761 766 756 758 749 747 751 747 742 743 741 742 741 750 755 760 763 767 770 774 780 786 791 796 801 805 808 811 814 817 820 823 826 829 832 834 837 840 843 845 848 849 851 853 856
795 793 783 787 786 778 777 767 765 752 749 744 745 742 739 742 744 746 752 756 761 766 770 774 780 785 791 795 800 804 808 810 813 816 820 823 827 830 833 836 838 842 844 846 849 851 853 856 857
797 797 793 794 798 798 788 773 778 767 754 757 752 744 743 739 742 745 750 751 755 764 770 772 778 784 789 792 799 802 806 809 813 816 820 823 826 830 834 837 838 842 844 846 851 852 855 857 859
812 795 795 798 796 800 798 792 779 769 757 759 756 752 748 740 740 741 747 753 755 760 766 773 777 782 789 791 797 800 804 808 811 815 819 822 826 830 833 836 838 841 845 848 851 854 856 859 861
809 800 794 794 790 790 791 794 792 772 765 759 755 751 755 743 738 739 742 747 750 756 765 770 775 781 786 791 795 800 802 807 811 814 818 821 825 828 832 835 838 841 844 848 851 854 857 860 862
805 802 799 792 788 784 785 777 786 765 762 757 754 750 746 745 738 738 740 745 750 752 758 767 774 779 783 789 793 798 801 805 809 814 817 820 823 827 831 835 839 841 844 848 851 854 858 860 864
802 804 796 790 784 780 776 778 771 768 762 757 754 753 750 745 736 741 738 743 748 749 751 760 770 776 780 787 791 796 799 804 808 812 816 819 822 826 830 834 838 841 844 848 851 855 858 862 865
809 804 814 785 781 778 777 779 764 757 759 757 754 752 752 749 750 745 743 741 744 748 754 760 769 774 778 783 789 793 798 803 807 810 815 818 822 826 829 833 837 841 844 847 851 855 858 862 866
828 832 806 789 778 779 773 771 754 752 758 756 752 751 753 753 751 749 747 745 746 745 749 758 766 771 774 780 786 791 796 803 805 809 812 816 821 824 829 833 837 841 844 848 852 855 858 863 866
831 831 806 805 785 776 779 774 763 756 751 751 751 753 757 758 764 760 753 744 746 745 749 753 760 767 773 777 783 789 796 801 804 807 811 815 819 823 828 832 836 840 844 847 852 855 859 863 865
821 828 810 799 782 784 778 774 765 759 769 768 767 767 769 765 762 756 754 750 746 749 750 755 760 766 771 776 779 785 790 795 801 804 808 813 816 822 826 831 835 839 842 845 850 854 858 863 867
816 835 822 793 783 791 782 776 776 778 788 790 784 776 778 773 769 765 762 755 753 755 754 756 758 764 769 773 776 779 784 788 795 800 805 810 814 818 822 827 831 836 840 844 847 850 856 861 864
829 832 806 800 788 783 781 776 781 783 791 793 792 791 786 784 779 774 769 765 761 757 756 756 760 763 769 770 776 779 786 789 794 798 804 807 810 814 819 823 828 832 837 840 843 847 849 855 861
838 804 805 799 801 785 782 777 794 794 798 797 797 797 793 790 786 781 777 771 767 765 762 760 760 763 768 768 773 774 781 781 786 791 797 803 806 810 814 819 824 829 833 837 840 843 845 848 853
826 810 807 799 798 787 782 811 814 805 804 809 807 806 799 798 792 788 784 778 775 771 768 764 761 763 765 768 771 772 780 781 783 785 791 795 801 805 809 814 819 824 827 832 836 839 842 845 848
816 816 797 790 789 786 801 825 843 821 823 819 816 807 802 798 794 792 786 783 777 774 770 766 762 761 763 765 768 770 775 778 779 782 787 791 795 799 804 809 813 818 821 825 830 835 838 840 844
829 834 834 822 817 790 796 818 843 834 830 821 814 817 809 807 800 792 787 784 781 778 775 769 765 761 762 763 765 768 772 776 773 775 779 787 789 794 797 802 807 811 815 819 825 830 833 836 839
845 855 860 833 833 815 814 847 836 831 828 824 823 818 815 808 802 795 794 788 784 783 779 774 768 764 761 762 762 763 767 771 772 773 774 779 783 784 789 794 799 804 809 814 819 826 830 833 835
836 847 849 856 851 832 863 848 831 829 829 828 823 817 813 805 803 802 798 796 792 787 784 779 772 768 764 761 761 761 763 767 767 769 770 770 777 780 784 788 793 798 801 806 812 818 823 827 830
841 848 850 863 853 856 854 870 850 843 840 835 833 833 826 816 811 808 806 800 795 790 785 782 774 771 768 763 761 759 761 762 765 765 768 767 767 771 779 782 786 791 794 798 805 810 816 820 824
852 859 869 872 882 886 873 848 852 844 843 842 836 831 829 823 817 814 809 800 798 793 788 782 773 770 767 766 763 760 759 758 759 761 763 763 764 765 766 777 781 783 786 791 797 803 807 811 817
881 882 896 876 865 894 878 849 847 843 842 838 831 824 820 819 815 808 802 798 794 787 779 779 775 772 769 767 764 763 759 754 754 755 755 758 758 761 761 763 771 777 779 782 788 795 798 802 808
Wind_Speed
8 5 2 1 1 3 4 7 3 3 2 6 6 5 7 3 6 5 2 23 34 43 39 33 31 28 26 25 26 25 24 23 23 23 23 23 24 25 24 24 23 24 25 24 24 25 24 24 24
7 1 0 1 3 5 7 7 10 9 7 1 3 5 3 7 1 3 17 18 34 45 39 35 33 30 28 27 27 27 25 25 24 23 22 22 23 25 26 25 24 25 25 26 26 26 26 25 24
4 2 3 3 4 16 8 8 15 9 7 2 1 4 5 5 4 13 8 26 39 43 38 35 35 32 30 29 28 28 27 25 25 24 23 22 24 25 25 24 24 24 25 28 28 27 26 25 23
2 2 2 4 17 10 5 5 7 5 2 4 3 6 3 5 7 16 30 36 43 43 39 36 35 32 31 30 28 28 26 26 26 24 23 24 24 24 25 25 25 25 27 29 27 24 22 21 21
3 1 4 8 21 2 4 1 4 11 4 5 6 4 4 3 8 22 36 39 44 41 41 37 35 32 31 30 29 28 27 26 27 24 23 24 24 24 25 26 25 27 28 27 24 22 20 21 19
3 2 7 20 13 8 6 6 3 3 4 3 3 4 5 2 16 29 37 40 42 45 41 37 36 32 31 30 30 29 29 27 26 24 24 24 25 25 25 26 26 27 27 25 22 21 21 19 18
4 6 20 2 6 7 7 4 9 4 3 5 4 4 3 3 18 23 29 37 38 39 41 38 37 33 32 31 30 29 27 27 26 24 25 25 26 27 26 26 26 27 27 24 22 22 22 20 19
3 5 18 21 11 4 6 7 3 10 8 3 3 4 4 5 21 23 23 26 31 39 39 38 36 34 33 32 30 28 28 26 26 25 24 26 27 28 27 27 27 27 26 25 23 25 24 22 21
1 6 15 23 17 11 4 2 4 2 5 4 5 5 2 16 31 24 23 23 25 31 36 37 36 33 33 32 31 28 27 26 25 25 25 26 27 28 28 28 28 26 24 25 24 24 24 24 23
3 7 8 8 10 10 14 8 9 4 6 14 8 3 9 24 23 27 23 22 24 30 33 33 33 31 32 32 30 29 27 27 27 27 27 29 30 30 29 28 28 25 25 24 24 24 23 22 22
2 6 4 5 9 10 14 13 12 6 4 6 3 5 5 14 19 22 27 29 32 31 30 32 33 33 31 31 33 31 31 29 29 29 30 32 32 31 31 30 29 26 25 26 24 24 23 22 22
4 4 4 4 6 8 11 16 15 6 5 9 9 9 7 9 14 17 23 26 30 34 34 31 32 33 29 30 31 32 32 32 32 33 33 34 33 34 33 32 30 27 26 26 25 24 23 22 21
3 5 5 6 9 10 8 9 15 21 19 15 11 7 6 11 13 17 27 36 32 31 30 34 33 34 32 32 29 32 31 33 33 35 36 36 36 35 34 31 29 27 28 27 26 24 23 22 21
4 9 9 7 10 9 11 16 5 8 10 9 11 8 10 7 15 19 21 25 29 34 37 35 35 35 33 32 31 33 31 35 36 36 37 37 37 36 34 31 28 29 29 29 27 26 25 24 23
6 9 7 6 7 7 7 9 12 16 16 11 11 6 8 10 14 9 23 30 32 34 40 40 39 37 36 35 35 33 33 36 37 36 37 37 38 36 35 32 31 31 30 30 28 28 26 25 23
5 2 3 5 5 7 7 10 9 11 12 11 8 5 6 7 10 14 17 29 32 30 34 36 34 36 35 36 35 33 34 34 34 38 37 37 37 37 36 34 34 32 32 32 31 30 28 25 22
6 3 4 6 3 8 6 5 2 5 6 7 7 5 4 9 18 26 26 21 29 38 35 36 37 36 36 37 35 36 36 34 34 39 38 39 38 37 37 37 35 34 34 33 32 30 29 26 22
4 4 3 6 3 7 9 9 8 6 5 4 7 8 12 11 14 22 28 13 18 25 32 36 38 37 35 35 31 32 33 33 33 39 39 39 39 37 39 39 37 36 35 34 32 30 27 26 25
5 4 6 5 6 3 4 6 5 8 16 14 12 13 15 15 16 27 31 31 8 14 25 28 33 33 31 30 32 30 34 36 34 40 39 39 39 39 42 40 38 37 37 36 34 31 30 28 28
1 0 6 9 7 2 4 4 8 17 16 13 13 15 17 17 18 24 30 31 31 16 6 23 30 31 32 32 33 37 35 39 34 38 41 40 42 42 45 43 41 39 38 36 36 36 32 29 28
1 2 4 6 7 4 3 1 10 6 17 17 18 13 16 17 16 17 25 27 29 30 21 13 23 31 33 32 29 24 27 25 26 32 37 42 45 43 45 43 43 41 39 40 40 40 37 29 25
3 2 8 11 5 2 2 3 8 14 11 19 17 16 15 17 16 14 19 25 28 30 25 16 12 29 31 36 27 28 26 26 29 38 40 40 44 45 45 44 43 43 41 41 42 43 40 40 34
6 9 10 9 4 3 4 5 7 5 12 17 16 14 15 14 16 14 17 22 24 27 27 21 10 25 32 32 32 30 27 27 28 32 37 41 43 46 47 47 45 44 43 42 44 45 42 42 36
6 3 3 4 1 2 7 4 5 6 7 9 11 15 14 14 15 15 19 21 26 29 30 26 17 5 27 29 32 35 31 25 23 27 30 36 39 43 45 47 47 46 45 46 46 47 46 45 38
9 6 3 5 4 2 3 7 4 4 6 7 12 11 13 12 13 15 16 23 26 29 30 29 26 14 9 28 27 32 32 30 32 34 32 31 34 35 43 49 47 46 47 46 45 48 49 45 44
2 4 3 1 2 4 5 2 3 6 4 6 5 7 10 13 12 15 18 21 24 26 27 29 29 25 15 18 26 31 33 35 30 36 38 35 37 42 47 50 48 47 46 45 45 47 48 49 48
5 5 4 2 2 3 3 5 5 4 6 7 9 11 12 13 13 14 19 20 21 23 24 25 27 27 20 16 15 25 30 32 32 30 39 43 40 36 40 49 46 45 47 48 47 46 48 48 49
5 2 4 3 3 3 5 4 4 6 7 6 8 6 7 9 10 11 15 18 19 19 21 21 24 25 24 20 15 7 15 33 31 36 35 35 39 41 38 42 46 45 46 47 48 44 45 47 50
5 5 4 4 3 3 1 5 6 5 5 7 8 7 5 6 7 7 12 15 17 14 17 22 25 28 28 25 22 19 13 12 35 34 37 38 39 38 41 42 41 44 46 47 47 42 42 48 46
4 3 4 4 6 1 3 5 4 6 5 5 8 9 8 6 6 7 15 18 19 21 22 23 25 25 28 27 26 25 17 14 11 32 33 39 39 35 45 47 45 43 45 47 47 42 44 49 44
Wind_Direction
299 294 297 116 177 85 223 244 228 190 172 212 137 156 180 187 167 209 187 160 163 164 166 172 170 164 160 156 154 152 151 146 143 140 138 136 136 134 136 133 129 125 122 121 118 114 111 109 111
296 240 108 109 212 193 219 223 206 212 206 308 168 284 211 220 206 103 133 170 165 164 166 173 170 164 160 160 158 154 153 150 147 142 142 139 138 138 136 132 130 130 126 123 124 119 117 116 114
264 210 139 186 217 224 219 204 218 229 241 319 185 189 189 204 156 177 166 164 165 163 168 173 171 165 165 163 161 158 155 153 148 146 145 145 143 141 137 137 135 133 132 132 127 123 121 119 118
279 111 348 217 229 246 205 194 201 227 289 197 242 287 262 212 174 188 161 160 162 165 170 173 171 168 168 164 163 157 158 156 153 151 150 148 146 143 141 142 140 135 137 134 129 125 123 127 120
281 143 225 234 237 263 202 203 201 216 188 182 174 242 265 4 167 166 158 163 163 166 170 173 172 170 170 167 165 161 161 162 157 155 153 151 148 147 145 143 141 140 137 134 131 130 129 129 127
275 174 225 233 223 214 272 233 195 234 212 173 156 205 242 294 160 166 163 164 168 167 169 172 174 172 172 169 167 167 165 163 161 157 156 154 153 150 148 145 141 140 141 136 133 134 137 130 127
282 251 235 322 267 220 212 238 226 205 191 233 159 186 265 181 169 166 163 160 165 167 167 172 176 175 175 172 169 169 167 167 163 159 159 156 155 154 151 147 143 145 143 136 134 137 142 133 126
304 280 254 241 243 302 203 226 184 205 246 216 207 221 230 209 167 161 158 157 162 166 168 172 175 178 175 175 174 172 170 168 165 164 162 161 159 154 152 149 148 151 148 139 137 138 139 135 131
3 272 246 245 241 235 306 266 245 159 217 216 197 177 215 155 153 154 157 157 162 167 168 171 175 177 177 177 178 178 173 170 168 166 165 160 156 154 154 153 153 152 140 141 142 144 143 140 135
227 259 275 31 9 325 319 328 356 280 190 241 200 217 154 154 164 157 165 168 167 170 172 169 171 173 175 177 177 176 174 173 172 168 166 162 158 159 156 156 154 148 144 149 149 148 146 145 142
256 244 272 325 345 353 331 328 330 314 237 34 334 272 178 167 187 173 181 172 172 173 172 173 175 174 176 174 178 177 177 175 172 170 168 164 163 160 160 160 154 151 157 154 153 148 149 149 148
338 295 310 292 350 333 316 320 309 263 281 343 318 303 289 221 200 183 182 177 166 171 177 175 176 174 176 174 176 176 178 178 174 173 171 168 164 161 164 162 161 166 161 154 153 150 149 150 150
234 283 274 315 277 286 285 281 285 286 287 301 301 321 327 242 206 207 188 187 168 165 172 180 177 177 177 177 175 180 176 179 174 175 176 169 169 166 167 169 169 169 160 159 155 152 148 146 146
284 293 294 277 279 258 265 277 314 324 324 310 319 338 337 333 212 209 202 186 175 169 174 182 181 180 178 179 177 182 177 181 181 178 176 175 172 175 173 173 172 167 165 162 160 156 151 145 145
269 294 297 248 242 253 221 275 257 258 273 275 278 323 332 343 357 276 206 179 183 180 175 179 183 182 182 184 185 186 180 181 180 178 179 179 179 179 177 175 172 168 167 164 160 154 150 145 143
345 359 359 294 320 254 142 269 290 222 232 269 258 298 338 337 348 339 270 193 182 176 177 176 181 183 181 186 186 185 186 182 180 185 184 185 183 183 179 178 174 169 167 164 161 156 149 145 143
17 277 286 296 272 338 183 270 285 269 210 243 260 292 26 13 13 6 347 243 192 177 176 177 182 186 182 187 186 189 189 188 185 191 185 189 188 187 185 179 175 171 168 165 162 157 156 148 139
300 308 317 274 300 317 294 265 278 329 248 18 29 26 24 22 12 3 358 358 219 185 182 182 183 187 183 186 183 185 188 189 188 192 190 190 191 188 184 181 176 174 172 168 166 162 157 151 141
266 233 267 261 277 247 292 290 298 21 55 36 18 16 13 8 341 12 4 14 350 212 198 199 182 192 182 181 174 174 179 185 192 194 193 192 190 191 187 186 181 181 180 175 173 166 159 146 145
121 288 300 291 262 51 283 314 50 55 50 41 27 22 11 357 4 3 359 7 11 353 317 203 190 192 194 191 190 187 189 188 188 189 193 194 194 192 191 189 187 186 184 180 178 174 157 154 149
352 164 325 305 309 247 296 168 56 49 37 36 27 13 19 3 354 1 357 3 2 2 347 333 220 205 204 194 193 188 195 178 179 186 190 195 197 197 195 194 193 191 193 188 186 181 171 163 170
347 334 321 304 344 271 71 153 46 354 21 22 16 11 5 360 355 357 358 358 1 355 352 330 273 217 209 205 197 187 197 181 188 192 195 193 199 200 199 198 199 199 199 196 193 189 184 175 174
243 326 285 282 251 333 33 70 319 2 1 6 355 2 3 350 352 354 357 356 355 359 354 349 317 229 216 212 207 194 203 206 198 190 190 192 197 202 203 201 201 203 204 204 199 193 189 187 181
302 319 238 243 330 44 329 112 323 8 332 330 354 345 351 354 352 354 0 358 359 0 359 0 350 305 213 215 208 210 210 208 193 187 186 189 194 196 201 202 204 205 205 206 204 201 196 195 191
14 32 340 10 21 43 15 57 237 295 310 323 335 341 348 349 357 353 1 358 359 355 354 356 356 342 259 217 211 215 211 212 197 190 193 193 191 194 199 205 202 203 206 209 210 207 203 202 198
327 117 116 106 354 278 359 106 245 225 273 321 317 322 331 360 358 1 351 354 357 351 350 354 357 352 355 230 217 220 215 216 211 199 196 203 201 201 204 205 206 205 206 213 214 212 210 208 206
318 44 203 82 302 22 315 315 318 302 330 325 343 358 349 348 1 356 349 350 346 350 345 350 356 354 355 1 245 225 226 219 217 215 205 205 209 207 203 207 206 207 209 214 215 211 212 213 213
105 213 26 9 37 355 327 302 243 324 308 319 333 339 331 339 346 348 342 340 342 344 349 348 5 359 352 351 348 306 250 227 230 223 219 210 209 208 207 207 207 207 210 213 214 209 214 214 217
343 9 15 108 87 141 302 276 215 231 255 287 298 298 302 319 319 318 335 341 334 342 353 356 5 2 357 352 346 335 297 289 232 232 224 217 213 204 209 213 210 208 209 212 212 210 211 216 216
135 161 118 96 303 130 155 277 209 211 261 302 300 307 317 311 312 318 336 340 341 346 1 358 358 3 357 348 346 335 326 308 294 232 226 221 217 217 215 221 211 209 209 211 211 209 213 217 213